Location: Briis
(48.6240°N, 2.1211°E)
Time: 17:38:30
(UTC+00:00)

IRS-1C - Pass Details

Date: 25 September 2020
Orbit: 815 x 817 km, 98.8° (Epoch: 21 October)

Event Time Altitude Azimuth Distance (km) Brightness Sun altitude
Rises 02:57:25 0° 13° (NNE) 3,356 8.0 -26.8°
Reaches altitude 10° 02:59:47 10° 11° (N) 2,420 7.1 -26.4°
Maximum altitude 03:05:06 72° 289° (WNW) 861 4.0 -25.7°
Enters shadow 03:05:14 72° 277° (W) 863 4.0 -25.7°
